SCP
0 0 0 0 0 0 0 0 0 0 0 0 0 0 0 0 0 0 0 0 0 0 0 0 0 0 0 0 0 0 0 0 0 0 0 0 0 0 0 0 0 0 0 0 0 0 0 0 0 0 0 0 0 0
0 0 0 0 0 0 0 0 0 0 0 0 0 0 0 0 0 0 0 0 0 0 0 0 0 0 0 0 0 0 0 0 0 0 0 0 0 0 0 0 0 0 0 0 0 0 0 0 0 0 0 0 0 0
0 0 0 0 0 0 0 0 0 0 0 0 0 0 0 0 0 0 0 0 0 0 0 0 0 0 0 0 0 0 0 0 0 0 0 0 0 0 0 0 0 0 0 0 0 0 0 0 0 0 0 0 0 0
0 0 0 0 0 0 0 0 0 0 0 0 0 0 0 0 0 0 0 0 0 0 0 0 0 0 0 0 0 0 0 0 0 0 0 0 0 0 0 0 0 0 0 0 0 0 0 0 0 0 0 0 0 0
0 0 0 0 0 0 0 0 0 0 0 0 0 0 0 0 0 0 0 0 0 0 0 0 0 0 0 0 0 0 0 0 0 0 0 0 0 0 0 0 0 0 0 0 0 0 0 0 0 0 0 0 0 0
0 0 0 0 0 0 0 0 0 0 0 0 0 0 0 0 0 0 0 0 0 0 0 0 0 0 0 0 0 0 0 0 0 0 0 0 0 0 0 0 0 0 0 0 0 0 0 0 0 0 0 0 0 0
0 0 0 0 0 0 0 0 0 0 0 0 0 0 0 0 0 0 0 0 0 0 0 0 0 0 0 0 0 0 0 0 0 0 0 0 0 0 0 0 0 0 0 0 0 0 0 0 0 0 0 0 0 0
0 0 0 0 0 0 0 0 0 0 0 0 0 0 0 0 0 0 0 0 0 0 0 0 0 0 0 0 0 0 0 0 0 0 0 0 0 0 0 0 0 0 0 0 0 0 0 0 0 0 0 0 -0 -0
0 0 0 0 0 0 0 0 0 0 0 0 0 0 0 0 0 0 0 0 0 0 0 0 0 0 0 0 0 0 0 0 0 0 0 0 0 0 0 0 0 0 0 0 0 0 0 0 0 -0 -0 -0 -0 -0
0 0 0 0 0 0 0 0 0 0 0 0 0 0 0 0 0 0 0 0 0 0 0 0 0 0 0 0 0 0 0 0 0 0 0 0 0 0 0 0 0 0 0 0 0 0 0 0 0 -0 -0 -0 -0 0
0 0 0 0 0 0 0 0 0 0 0 0 0 0 0 0 0 0 0 0 0 0 0 0 0 0 0 0 0 0 0 0 0 0 0 0 0 0 0 0 0 0 0 0 0 0 0 0 0 0 0 0 0 0
0 0 0 0 0 0 0 0 0 0 0 0 0 0 0 0 0 0 0 0 0 0 0 0 0 0 0 0 0 0 0 0 0 0 0 0 0 0 0 0 0 0 0 0 0 0 0 0 0 0 0 0 0 0
0 0 0 0 0 0 0 0 0 0 0 0 0 0 0 0 0 0 0 0 0 0 0 0 0 0 0 0 0 0 0 0 0 0 0 0 0 0 0 0 0 0 0 0 0 0 0 0 0 0 0 0 0 0
0 0 0 0 0 0 0 0 0 0 0 0 0 0 0 0 0 0 0 0 0 0 0 0 0 0 0 0 0 0 0 0 0 0 0 0 0 0 0 0 0 0 0 0 0 0 0 0 0 0 0 0 0 0
0 0 0 0 0 0 0 0 0 0 0 0 0 0 0 0 0 0 0 0 0 0 0 0 0 0 0 0 0 0 0 0 0 0 0 0 0 0 0 0 0 0 0 0 0 0 0 0 0 0 0 0 0 0
0 0 0 0 0 0 0 0 0 0 0 0 0 0 0 0 0 0 0 0 0 0 0 0 0 0 0 0 0 0 0 0 0 0 0 0 0 0 0 0 0 0 0 0 0 0 0 0 0 0 0 -0 0 0
0 0 0 0 0 0 0 0 0 0 0 0 0 0 0 0 0 0 0 0 0 0 0 0 0 0 0 0 0 0 0 0 0 0 0 0 0 0 0 0 0 0 0 0 0 0 0 0 0 0 0 -0 0 -0
0 0 0 0 0 0 0 0 0 0 0 0 0 0 0 0 0 0 0 0 0 0 0 0 0 0 0 0 0 0 0 0 0 0 0 0 0 0 0 0 0 0 0 0 0 0 0 0 0 0 0 -0 -0 -0
0 0 0 0 0 0 0 0 0 0 0 0 0 0 0 0 0 0 0 0 0 0 0 0 0 0 0 0 0 0 0 0 0 0 0 0 0 0 0 0 0 0 0 0 0 0 0 0 0 0 0 -0 -0 -0
0 0 0 0 0 0 0 0 0 0 0 0 0 0 0 0 0 0 0 0 0 0 0 0 0 0 0 0 0 0 0 0 0 0 0 0 0 0 0 0 0 0 0 0 0 0 0 0 0 0 0 -0 -0 -0
0 0 0 0 0 0 0 0 0 0 0 0 0 0 0 0 0 0 0 0 0 0 0 0 0 0 0 0 0 0 0 0 0 0 0 0 0 0 0 0 0 0 0 0 0 0 0 0 0 0 0 0 -0 -0
0 0 0 0 0 0 0 0 0 0 0 0 0 0 0 0 0 0 0 0 0 0 0 0 0 0 0 0 0 0 0 0 0 0 0 0 0 0 0 0 0 0 0 0 0 0 0 0 0 0 0 0 -0 -0
0 0 0 0 0 0 0 0 0 0 0 0 0 0 0 0 0 0 0 0 0 0 0 0 0 0 0 0 0 0 0 0 0 0 0 0 0 0 0 0 0 0 0 0 0 0 0 0 0 0 0 0 0 -0
0 0 0 0 0 0 0 0 0 0 0 0 0 0 0 0 0 0 0 0 0 0 0 0 0 0 0 0 0 0 0 0 0 0 0 0 0 0 0 0 0 0 0 0 0 0 0 0 0 0 0 0 0 0
0 0 0 0 0 0 0 0 0 0 0 0 0 0 0 0 0 0 0 0 0 0 0 0 0 0 0 0 0 0 0 0 0 0 0 0 0 0 0 0 0 0 0 0 0 0 0 0 0 0 0 0 0 0
0 0 0 0 0 0 0 0 0 0 0 0 0 0 0 0 0 0 0 0 0 0 0 0 0 0 0 0 0 0 0 0 0 0 0 0 0 0 0 0 0 0 0 0 0 0 0 0 0 0 0 0 0 0
0 0 0 0 0 0 0 0 0 0 0 0 0 0 0 0 0 0 0 0 0 0 0 0 0 0 0 0 0 0 0 0 0 0 0 0 0 0 0 0 0 0 0 0 0 0 0 0 -0 -0 0 0 0 0
0 0 0 0 0 0 0 0 0 0 0 0 0 0 0 0 0 0 0 0 0 0 0 0 0 0 0 0 0 0 0 0 0 0 0 0 0 0 0 0 0 0 0 0 0 0 0 0 0 -0 -0 -0 0 -0
0 0 0 0 0 0 0 0 0 0 0 0 0 0 0 0 0 0 0 0 0 0 0 0 0 0 0 0 0 0 0 0 0 0 0 0 0 0 0 0 0 0 0 0 0 0 0 0 0 0 -0 -0 -0 -0
0 0 0 0 0 0 0 0 0 0 0 0 0 0 0 0 0 0 0 0 0 0 0 0 0 0 0 0 0 0 0 0 0 0 0 0 0 0 0 0 0 0 0 0 0 0 0 0 0 0 0 -0 -0 -0
0 0 0 0 0 0 0 0 0 0 0 0 0 0 0 0 0 0 0 0 0 0 0 0 0 0 0 0 0 0 0 0 0 0 0 0 0 0 0 0 0 0 0 0 0 0 0 0 0 0 0 0 -0 -0
0 0 0 0 0 0 0 0 0 0 0 0 0 0 0 0 0 0 0 0 0 0 0 0 0 0 0 0 0 0 0 0 0 0 0 0 0 0 0 0 0 0 0 0 0 0 0 0 0 0 0 -0 -0 -0
0 0 0 0 0 0 0 0 0 0 0 0 0 0 0 0 0 0 0 0 0 0 0 0 0 0 0 0 0 0 0 0 0 0 0 0 0 0 0 0 0 0 0 0 0 0 0 0 0 0 0 0 -0 -0
Wind_Speed_500mb
44 43 43 41 37 33 30 29 25 20 14 12 13 12 14 14 14 16 16 15 15 6 12 21 23 14 14 16 7 9 4 9 6 8 5 5 7 7 11 18 20 15 15 21 21 18 23 9 12 26 44 77 65 68
55 50 46 47 45 40 35 32 30 24 19 14 12 9 9 8 5 11 9 12 15 10 11 17 28 32 32 18 18 15 5 8 13 7 6 5 10 9 17 13 9 12 18 19 17 22 57 76 70 70 65 59 57 63
60 59 54 50 53 48 41 37 33 27 23 20 18 10 9 10 6 12 13 11 10 13 19 16 14 24 31 39 33 15 15 17 11 15 5 6 15 11 11 18 30 31 35 24 29 39 60 61 77 57 39 46 56 55
63 62 66 56 48 48 43 39 35 32 26 21 21 16 12 14 11 14 19 15 7 4 11 8 15 22 18 30 40 49 16 16 11 10 13 9 10 19 15 24 29 41 45 36 44 58 58 43 39 51 54 53 56 61
73 67 64 57 50 49 47 42 40 39 34 32 28 21 16 19 15 16 23 27 22 13 8 20 40 36 24 32 40 41 45 38 25 12 15 9 25 23 32 26 27 39 25 19 28 53 41 43 44 48 54 63 68 73
77 78 69 64 59 50 54 58 55 54 43 37 29 28 21 22 17 12 7 5 8 22 8 8 12 16 22 21 30 37 39 32 23 15 13 16 36 11 9 16 39 29 31 33 44 39 35 49 58 58 67 75 78 82
73 73 74 74 62 61 52 54 55 51 42 37 32 27 22 23 22 14 7 6 5 11 6 13 10 7 11 18 17 21 28 19 20 15 17 29 30 17 8 24 69 57 39 31 30 40 51 49 70 79 83 86 83 88
81 72 73 77 73 62 63 58 51 52 48 40 33 23 21 25 25 30 31 33 22 10 10 9 9 8 14 12 11 17 13 15 16 14 14 19 17 14 11 35 28 20 21 30 30 49 65 78 84 87 85 83 85 86
75 78 70 71 70 71 62 62 53 50 47 42 31 22 22 32 24 23 17 16 24 22 8 13 6 5 13 11 10 9 11 8 10 12 11 9 8 14 26 30 26 27 24 45 64 72 78 78 81 81 81 82 80 84
77 73 81 75 74 70 67 67 57 56 52 41 35 21 16 17 18 14 16 17 25 24 24 16 22 6 14 11 9 8 8 5 6 8 5 8 14 37 29 13 12 32 49 55 64 76 79 79 76 80 81 84 81 83
77 74 72 78 76 61 73 78 65 59 53 57 33 23 19 26 17 13 11 13 15 11 17 14 43 25 17 10 7 10 4 5 7 5 6 7 9 10 1 17 34 44 47 50 54 60 66 73 76 77 78 80 85 87
80 77 72 74 80 70 76 82 75 76 71 57 33 37 38 16 9 12 12 12 14 12 13 14 17 33 13 13 8 9 6 4 12 5 6 8 5 13 12 35 43 44 49 57 57 65 64 64 62 68 66 71 79 85
81 77 75 70 82 78 78 89 88 93 79 49 21 18 21 18 15 21 25 14 12 16 24 24 15 22 13 13 8 9 9 11 2 7 8 9 10 6 29 37 40 44 50 54 61 65 63 63 58 58 67 68 70 75
85 80 73 72 76 77 87 84 97 101 81 19 22 16 12 17 19 18 14 9 16 19 41 42 20 14 12 14 9 10 9 5 8 9 12 7 8 22 30 31 39 48 50 59 61 59 57 58 59 58 55 56 65 73
89 79 73 73 70 82 88 86 114 115 38 23 23 16 25 26 11 24 26 22 21 30 48 28 13 12 8 7 9 7 9 12 13 10 4 13 13 21 24 30 38 41 48 57 58 56 53 52 54 54 52 53 60 69
88 82 80 77 74 83 79 107 118 93 33 30 22 16 16 23 26 19 33 31 36 48 39 10 9 8 11 8 14 17 10 16 8 8 15 6 14 16 21 28 34 37 39 44 47 48 46 46 47 47 49 50 58 64
79 86 82 76 74 80 108 108 72 39 30 20 24 44 35 13 36 38 29 38 50 55 14 12 18 18 13 10 12 11 12 7 16 18 8 13 15 15 19 26 32 34 35 40 41 39 37 40 40 44 51 52 51 57
82 78 72 68 68 66 103 76 40 36 19 26 18 29 46 22 25 25 36 48 49 38 22 8 12 14 14 15 10 10 22 15 15 14 16 18 17 13 15 24 29 31 32 34 34 31 34 36 39 39 43 48 50 51
77 78 70 68 64 80 35 31 34 21 16 33 22 30 35 31 38 32 38 60 51 53 20 16 13 10 11 15 15 18 20 24 18 17 23 22 16 13 16 24 27 27 28 28 30 27 31 27 29 35 38 38 43 46
67 74 68 69 58 43 16 10 33 19 19 22 27 35 23 22 42 46 39 55 58 28 22 12 16 23 15 22 25 21 23 25 20 20 22 18 14 14 16 25 26 25 23 25 25 20 26 26 23 28 28 31 36 39
64 66 56 56 57 33 11 19 18 21 27 17 30 40 13 26 22 30 32 47 33 19 20 43 51 51 49 46 37 30 30 30 26 26 26 22 16 15 19 24 22 20 20 21 22 20 19 23 23 24 24 25 28 29
52 57 54 59 10 10 6 12 25 30 17 23 31 21 15 17 17 22 27 26 21 51 50 56 52 52 55 55 45 42 40 35 30 28 24 23 23 20 18 20 17 16 17 16 17 16 18 18 19 20 22 26 27 30
53 59 27 14 10 8 8 31 12 10 10 24 28 13 8 13 19 33 15 22 33 48 59 72 64 62 66 56 53 49 48 41 34 28 23 25 22 20 18 16 14 14 14 11 12 13 14 15 16 18 21 25 26 28
41 24 13 13 10 8 18 7 13 14 13 11 12 10 13 13 23 14 10 21 37 45 54 68 69 61 63 63 63 58 52 44 34 27 26 22 18 17 17 16 13 14 12 10 11 12 13 13 15 17 20 25 26 28
14 9 18 9 11 10 8 10 9 8 9 10 12 8 11 17 9 11 9 13 35 53 58 64 67 69 57 52 58 54 47 43 35 27 26 22 18 15 16 14 16 18 12 9 8 9 11 13 16 20 23 25 29 29
8 6 8 7 11 8 13 12 12 9 9 8 8 16 11 8 10 12 8 20 41 48 52 54 58 56 54 55 52 51 47 41 35 31 25 22 20 21 20 18 17 19 18 13 10 11 15 18 22 25 28 29 30 33
9 7 8 8 15 21 12 14 22 9 8 11 12 10 8 10 14 9 15 20 24 24 24 34 43 47 50 46 39 39 38 36 35 29 25 19 21 23 22 20 18 20 22 17 15 18 21 24 28 30 33 32 32 33
7 14 18 24 13 6 10 9 10 12 9 18 22 14 16 17 11 9 12 12 15 13 17 24 27 28 32 36 35 36 36 33 29 26 23 18 17 16 14 11 12 17 20 21 21 22 24 27 29 31 32 33 31 28
7 23 26 9 11 8 5 9 12 12 25 34 15 12 10 10 9 12 12 15 17 26 34 36 35 33 31 31 33 33 35 36 37 34 33 30 29 25 21 19 19 20 20 21 22 22 23 24 25 26 26 26 27 27
10 12 11 7 5 4 3 4 10 29 22 27 15 11 10 11 16 14 15 22 32 34 27 23 22 30 33 38 38 36 35 37 37 38 35 35 33 27 23 22 23 23 21 20 22 20 20 22 20 20 21 22 23 25
12 9 10 10 6 4 10 18 24 25 22 14 14 11 10 8 11 13 17 24 33 33 26 23 25 28 28 34 40 38 37 36 36 37 37 30 25 24 23 23 23 23 22 21 20 21 21 20 21 22 21 22 23 25
9 6 8 7 6 18 17 8 7 7 6 5 4 8 9 7 8 8 15 32 37 36 33 29 27 29 32 33 35 37 30 32 32 28 24 21 21 22 22 23 22 20 20 19 19 21 21 21 22 22 24 24 26 28
14 20 20 12 7 6 6 7 5 6 5 5 4 7 7 6 4 6 6 11 18 23 26 26 23 24 28 30 32 32 35 31 27 25 22 21 23 22 20 21 22 22 22 21 21 21 22 23 24 25 26 27 29 31
Wind_Direction_500mb
273 273 269 267 266 267 263 264 270 283 307 321 336 340 342 352 4 20 37 23 24 325 253 217 210 186 180 198 208 155 245 197 200 219 240 245 251 243 275 266 285 279 286 275 272 268 278 64 318 285 302 305 303 306
272 270 269 265 261 257 258 253 259 268 279 287 301 307 311 314 358 340 16 359 347 310 258 240 246 241 230 219 201 206 254 175 207 224 229 269 250 245 271 283 266 262 232 286 265 269 284 293 297 298 298 297 303 305
269 276 269 267 265 258 252 248 250 258 267 276 283 273 267 274 268 293 315 322 340 320 295 259 260 217 226 232 228 207 228 214 218 220 249 257 255 260 259 272 281 283 268 257 279 268 277 294 301 302 311 298 298 297
263 263 269 269 264 266 260 253 249 247 250 260 280 281 249 240 240 268 293 300 278 258 284 279 207 210 259 233 228 222 212 198 209 208 238 236 253 244 257 276 283 278 293 274 272 280 292 291 301 308 306 303 297 299
254 257 259 261 269 256 264 261 255 251 252 254 248 257 239 228 237 262 283 277 256 222 274 285 283 276 245 228 223 225 223 228 236 241 222 241 262 266 263 265 264 265 264 275 278 300 296 293 303 304 304 307 305 305
250 248 253 255 255 257 249 249 240 245 240 235 235 249 231 217 238 287 299 262 220 193 280 290 277 248 231 236 220 218 219 221 216 220 236 239 251 254 264 274 277 279 286 275 287 287 288 297 301 303 303 303 301 306
254 249 251 251 252 254 252 240 236 236 236 235 231 238 223 212 234 234 227 192 184 150 259 288 268 246 222 202 201 203 206 211 217 242 234 249 253 222 248 261 276 296 291 286 292 300 301 304 304 305 305 304 301 301
250 249 248 251 247 251 250 236 230 225 221 225 226 233 215 222 243 251 258 253 238 245 233 264 270 269 193 187 188 194 179 197 227 244 249 252 263 216 251 256 279 284 277 294 298 306 303 303 304 304 307 306 305 303
256 244 243 244 247 245 246 239 226 217 214 211 226 225 216 234 241 252 259 223 223 211 231 224 232 266 184 177 176 183 188 225 231 238 238 245 230 228 245 275 295 303 302 310 312 308 308 308 310 311 313 311 308 306
257 251 236 236 243 242 242 239 222 208 205 201 198 180 218 208 194 151 159 172 206 211 223 232 197 247 192 176 169 164 179 236 249 223 212 234 257 259 289 299 332 322 316 315 314 315 318 314 315 312 312 312 308 307
256 255 248 230 235 238 229 238 213 200 193 188 177 200 174 153 160 177 195 190 192 245 230 228 202 204 203 192 186 212 184 204 253 173 241 248 255 183 190 325 326 322 320 318 315 313 313 310 311 311 312 312 312 313
256 253 250 243 230 232 229 232 205 190 191 190 173 153 146 154 218 225 193 184 211 234 204 197 187 195 184 181 181 181 214 203 252 153 236 250 213 184 318 324 325 326 327 326 325 321 320 317 317 319 317 318 322 320
252 251 247 241 229 227 222 229 203 194 188 173 162 206 151 159 201 219 187 193 204 201 178 161 144 163 163 182 180 184 215 230 268 228 238 239 167 253 324 324 327 331 334 333 328 331 329 330 328 327 330 334 334 334
251 248 243 240 232 227 212 214 200 190 170 159 166 199 211 197 217 202 208 172 187 169 161 158 141 160 165 171 181 208 211 243 257 238 230 175 186 321 322 324 329 331 337 343 339 337 333 342 337 343 344 346 351 351
246 247 242 235 234 224 214 210 201 186 168 169 172 199 218 226 179 196 185 159 159 164 153 141 122 153 151 187 195 195 202 230 228 234 181 167 312 317 322 330 329 332 340 341 338 340 343 345 343 345 352 357 4 8
239 240 241 232 230 222 217 198 192 183 187 177 199 216 205 187 195 179 185 181 175 158 159 143 146 172 196 201 190 202 203 224 225 207 179 280 311 319 324 329 328 332 339 343 342 345 348 347 353 354 358 6 14 17
238 232 235 230 227 221 210 172 173 182 184 188 220 212 195 202 204 196 178 181 180 160 175 162 188 200 136 201 208 206 217 229 199 180 221 291 302 302 317 326 327 333 341 342 342 338 349 355 357 2 7 8 15 20
230 226 230 227 216 218 187 183 178 185 178 204 191 195 194 191 162 179 188 185 170 186 181 210 147 200 202 193 207 217 219 210 199 211 266 288 299 283 306 323 325 335 345 341 336 338 349 354 360 3 5 6 11 18
226 219 224 220 214 210 192 182 178 164 189 192 184 172 180 199 205 209 189 193 188 187 188 179 229 213 219 222 229 217 209 206 205 242 274 286 286 273 298 316 321 330 338 336 331 338 341 348 357 5 10 5 8 8
221 219 222 218 209 207 171 140 172 135 163 171 168 173 176 190 201 200 191 190 190 180 210 219 222 225 211 232 238 237 226 220 228 263 272 269 261 277 298 309 313 323 332 333 328 335 340 346 353 1 8 8 8 8
210 215 218 214 205 200 171 149 146 152 133 152 163 163 162 166 164 180 188 191 190 215 223 227 235 239 241 242 252 247 237 237 251 265 268 274 276 289 299 302 299 316 322 322 321 332 344 342 344 353 2 7 6 9
199 202 191 190 138 143 156 157 132 139 134 137 142 155 156 176 180 184 173 190 226 229 230 232 235 232 234 237 242 252 251 246 254 259 259 273 281 291 288 288 288 304 308 301 306 325 340 342 341 352 5 5 5 4
179 184 156 121 128 127 139 135 93 105 127 156 148 137 156 165 178 166 198 220 240 234 233 232 234 237 241 243 247 248 242 242 247 244 243 260 272 274 273 270 270 290 290 291 302 320 335 339 348 352 356 1 2 3
173 142 135 131 125 129 157 120 114 108 107 154 169 162 161 160 159 185 237 235 241 242 234 235 231 231 237 238 241 239 232 234 235 230 242 251 250 259 249 251 257 267 261 288 293 308 321 329 342 347 355 353 357 356
121 137 130 125 137 125 118 122 121 135 142 157 156 154 155 163 173 206 238 235 231 243 241 237 233 227 224 229 229 225 225 225 215 218 234 232 242 237 234 230 240 260 268 269 284 306 315 322 327 330 335 337 338 340
107 147 142 127 140 132 146 139 161 133 116 128 166 137 146 161 189 234 223 231 235 236 236 234 228 219 216 226 226 214 213 211 210 214 221 227 229 221 218 221 233 252 269 271 282 294 304 312 316 319 320 321 323 324
125 141 132 131 131 130 109 83 127 120 142 153 156 159 148 187 223 235 234 241 246 248 241 234 229 223 219 209 208 207 207 206 208 212 217 234 229 219 218 220 229 245 262 273 283 293 300 305 309 312 313 317 319 319
111 153 148 145 120 107 117 120 139 169 162 157 147 179 188 200 219 204 210 225 212 226 209 185 186 197 201 200 200 197 195 199 202 207 213 221 224 220 226 239 260 272 283 290 294 296 296 299 305 310 313 316 320 320
104 130 123 99 103 91 125 158 181 167 157 170 170 167 192 205 200 187 187 188 189 173 163 162 168 180 188 189 193 200 205 202 197 199 209 219 226 235 249 255 265 272 279 285 288 293 298 301 305 309 313 318 321 323
128 111 103 84 83 98 72 131 147 154 149 154 140 127 143 183 190 186 186 184 175 172 175 181 189 196 198 196 200 205 207 204 205 208 217 223 233 244 247 253 262 269 277 283 285 288 295 301 306 309 311 315 318 320
105 91 75 64 77 49 107 119 129 133 130 125 124 128 135 150 176 192 195 193 191 195 202 206 207 208 211 209 207 210 212 205 205 212 220 226 228 232 240 249 257 268 278 284 285 291 297 302 308 313 316 318 320 320
69 78 113 103 99 136 122 114 95 78 87 94 94 133 149 160 198 214 221 215 215 220 225 228 230 233 228 223 218 218 217 211 204 204 215 223 227 233 239 251 262 275 285 285 286 289 292 297 302 306 309 312 315 317
90 94 106 99 114 144 138 113 94 100 95 113 127 163 171 178 215 233 240 225 223 232 237 237 232 222 218 221 219 219 224 224 222 216 218 228 240 250 255 262 271 279 283 286 290 290 290 293 296 297 300 303 306 311
Wind_Speed_850mb
44 43 43 41 37 33 30 29 25 20 14 12 13 12 14 14 14 16 16 15 15 6 12 21 23 14 14 16 7 9 4 9 6 8 5 5 7 7 11 18 20 15 15 21 21 18 23 9 12 26 44 77 65 68
55 50 46 47 45 40 35 32 30 24 19 14 12 9 9 8 5 11 9 12 15 10 11 17 28 32 32 18 18 15 5 8 13 7 6 5 10 9 17 13 9 12 18 19 17 22 57 76 70 70 65 59 57 63
60 59 54 50 53 48 41 37 33 27 23 20 18 10 9 10 6 12 13 11 10 13 19 16 14 24 31 39 33 15 15 17 11 15 5 6 15 11 11 18 30 31 35 24 29 39 60 61 77 57 39 46 56 55
63 62 66 56 48 48 43 39 35 32 26 21 21 16 12 14 11 14 19 15 7 4 11 8 15 22 18 30 40 49 16 16 11 10 13 9 10 19 15 24 29 41 45 36 44 58 58 43 39 51 54 53 56 61
73 67 64 57 50 49 47 42 40 39 34 32 28 21 16 19 15 16 23 27 22 13 8 20 40 36 24 32 40 41 45 38 25 12 15 9 25 23 32 26 27 39 25 19 28 53 41 43 44 48 54 63 68 73
77 78 69 64 59 50 54 58 55 54 43 37 29 28 21 22 17 12 7 5 8 22 8 8 12 16 22 21 30 37 39 32 23 15 13 16 36 11 9 16 39 29 31 33 44 39 35 49 58 58 67 75 78 82
73 73 74 74 62 61 52 54 55 51 42 37 32 27 22 23 22 14 7 6 5 11 6 13 10 7 11 18 17 21 28 19 20 15 17 29 30 17 8 24 69 57 39 31 30 40 51 49 70 79 83 86 83 88
81 72 73 77 73 62 63 58 51 52 48 40 33 23 21 25 25 30 31 33 22 10 10 9 9 8 14 12 11 17 13 15 16 14 14 19 17 14 11 35 28 20 21 30 30 49 65 78 84 87 85 83 85 86
75 78 70 71 70 71 62 62 53 50 47 42 31 22 22 32 24 23 17 16 24 22 8 13 6 5 13 11 10 9 11 8 10 12 11 9 8 14 26 30 26 27 24 45 64 72 78 78 81 81 81 82 80 84
77 73 81 75 74 70 67 67 57 56 52 41 35 21 16 17 18 14 16 17 25 24 24 16 22 6 14 11 9 8 8 5 6 8 5 8 14 37 29 13 12 32 49 55 64 76 79 79 76 80 81 84 81 83
77 74 72 78 76 61 73 78 65 59 53 57 33 23 19 26 17 13 11 13 15 11 17 14 43 25 17 10 7 10 4 5 7 5 6 7 9 10 1 17 34 44 47 50 54 60 66 73 76 77 78 80 85 87
80 77 72 74 80 70 76 82 75 76 71 57 33 37 38 16 9 12 12 12 14 12 13 14 17 33 13 13 8 9 6 4 12 5 6 8 5 13 12 35 43 44 49 57 57 65 64 64 62 68 66 71 79 85
81 77 75 70 82 78 78 89 88 93 79 49 21 18 21 18 15 21 25 14 12 16 24 24 15 22 13 13 8 9 9 11 2 7 8 9 10 6 29 37 40 44 50 54 61 65 63 63 58 58 67 68 70 75
85 80 73 72 76 77 87 84 97 101 81 19 22 16 12 17 19 18 14 9 16 19 41 42 20 14 12 14 9 10 9 5 8 9 12 7 8 22 30 31 39 48 50 59 61 59 57 58 59 58 55 56 65 73
89 79 73 73 70 82 88 86 114 115 38 23 23 16 25 26 11 24 26 22 21 30 48 28 13 12 8 7 9 7 9 12 13 10 4 13 13 21 24 30 38 41 48 57 58 56 53 52 54 54 52 53 60 69
88 82 80 77 74 83 79 107 118 93 33 30 22 16 16 23 26 19 33 31 36 48 39 10 9 8 11 8 14 17 10 16 8 8 15 6 14 16 21 28 34 37 39 44 47 48 46 46 47 47 49 50 58 64
79 86 82 76 74 80 108 108 72 39 30 20 24 44 35 13 36 38 29 38 50 55 14 12 18 18 13 10 12 11 12 7 16 18 8 13 15 15 19 26 32 34 35 40 41 39 37 40 40 44 51 52 51 57
82 78 72 68 68 66 103 76 40 36 19 26 18 29 46 22 25 25 36 48 49 38 22 8 12 14 14 15 10 10 22 15 15 14 16 18 17 13 15 24 29 31 32 34 34 31 34 36 39 39 43 48 50 51
77 78 70 68 64 80 35 31 34 21 16 33 22 30 35 31 38 32 38 60 51 53 20 16 13 10 11 15 15 18 20 24 18 17 23 22 16 13 16 24 27 27 28 28 30 27 31 27 29 35 38 38 43 46
67 74 68 69 58 43 16 10 33 19 19 22 27 35 23 22 42 46 39 55 58 28 22 12 16 23 15 22 25 21 23 25 20 20 22 18 14 14 16 25 26 25 23 25 25 20 26 26 23 28 28 31 36 39
64 66 56 56 57 33 11 19 18 21 27 17 30 40 13 26 22 30 32 47 33 19 20 43 51 51 49 46 37 30 30 30 26 26 26 22 16 15 19 24 22 20 20 21 22 20 19 23 23 24 24 25 28 29
52 57 54 59 10 10 6 12 25 30 17 23 31 21 15 17 17 22 27 26 21 51 50 56 52 52 55 55 45 42 40 35 30 28 24 23 23 20 18 20 17 16 17 16 17 16 18 18 19 20 22 26 27 30
53 59 27 14 10 8 8 31 12 10 10 24 28 13 8 13 19 33 15 22 33 48 59 72 64 62 66 56 53 49 48 41 34 28 23 25 22 20 18 16 14 14 14 11 12 13 14 15 16 18 21 25 26 28
41 24 13 13 10 8 18 7 13 14 13 11 12 10 13 13 23 14 10 21 37 45 54 68 69 61 63 63 63 58 52 44 34 27 26 22 18 17 17 16 13 14 12 10 11 12 13 13 15 17 20 25 26 28
14 9 18 9 11 10 8 10 9 8 9 10 12 8 11 17 9 11 9 13 35 53 58 64 67 69 57 52 58 54 47 43 35 27 26 22 18 15 16 14 16 18 12 9 8 9 11 13 16 20 23 25 29 29
8 6 8 7 11 8 13 12 12 9 9 8 8 16 11 8 10 12 8 20 41 48 52 54 58 56 54 55 52 51 47 41 35 31 25 22 20 21 20 18 17 19 18 13 10 11 15 18 22 25 28 29 30 33
9 7 8 8 15 21 12 14 22 9 8 11 12 10 8 10 14 9 15 20 24 24 24 34 43 47 50 46 39 39 38 36 35 29 25 19 21 23 22 20 18 20 22 17 15 18 21 24 28 30 33 32 32 33
7 14 18 24 13 6 10 9 10 12 9 18 22 14 16 17 11 9 12 12 15 13 17 24 27 28 32 36 35 36 36 33 29 26 23 18 17 16 14 11 12 17 20 21 21 22 24 27 29 31 32 33 31 28
7 23 26 9 11 8 5 9 12 12 25 34 15 12 10 10 9 12 12 15 17 26 34 36 35 33 31 31 33 33 35 36 37 34 33 30 29 25 21 19 19 20 20 21 22 22 23 24 25 26 26 26 27 27
10 12 11 7 5 4 3 4 10 29 22 27 15 11 10 11 16 14 15 22 32 34 27 23 22 30 33 38 38 36 35 37 37 38 35 35 33 27 23 22 23 23 21 20 22 20 20 22 20 20 21 22 23 25
12 9 10 10 6 4 10 18 24 25 22 14 14 11 10 8 11 13 17 24 33 33 26 23 25 28 28 34 40 38 37 36 36 37 37 30 25 24 23 23 23 23 22 21 20 21 21 20 21 22 21 22 23 25
9 6 8 7 6 18 17 8 7 7 6 5 4 8 9 7 8 8 15 32 37 36 33 29 27 29 32 33 35 37 30 32 32 28 24 21 21 22 22 23 22 20 20 19 19 21 21 21 22 22 24 24 26 28
14 20 20 12 7 6 6 7 5 6 5 5 4 7 7 6 4 6 6 11 18 23 26 26 23 24 28 30 32 32 35 31 27 25 22 21 23 22 20 21 22 22 22 21 21 21 22 23 24 25 26 27 29 31
Wind_Direction_850mb
273 273 269 267 266 267 263 264 270 283 307 321 336 340 342 352 4 20 37 23 24 325 253 217 210 186 180 198 208 155 245 197 200 219 240 245 251 243 275 266 285 279 286 275 272 268 278 64 318 285 302 305 303 306
272 270 269 265 261 257 258 253 259 268 279 287 301 307 311 314 358 340 16 359 347 310 258 240 246 241 230 219 201 206 254 175 207 224 229 269 250 245 271 283 266 262 232 286 265 269 284 293 297 298 298 297 303 305
269 276 269 267 265 258 252 248 250 258 267 276 283 273 267 274 268 293 315 322 340 320 295 259 260 217 226 232 228 207 228 214 218 220 249 257 255 260 259 272 281 283 268 257 279 268 277 294 301 302 311 298 298 297
263 263 269 269 264 266 260 253 249 247 250 260 280 281 249 240 240 268 293 300 278 258 284 279 207 210 259 233 228 222 212 198 209 208 238 236 253 244 257 276 283 278 293 274 272 280 292 291 301 308 306 303 297 299
254 257 259 261 269 256 264 261 255 251 252 254 248 257 239 228 237 262 283 277 256 222 274 285 283 276 245 228 223 225 223 228 236 241 222 241 262 266 263 265 264 265 264 275 278 300 296 293 303 304 304 307 305 305
250 248 253 255 255 257 249 249 240 245 240 235 235 249 231 217 238 287 299 262 220 193 280 290 277 248 231 236 220 218 219 221 216 220 236 239 251 254 264 274 277 279 286 275 287 287 288 297 301 303 303 303 301 306
254 249 251 251 252 254 252 240 236 236 236 235 231 238 223 212 234 234 227 192 184 150 259 288 268 246 222 202 201 203 206 211 217 242 234 249 253 222 248 261 276 296 291 286 292 300 301 304 304 305 305 304 301 301
250 249 248 251 247 251 250 236 230 225 221 225 226 233 215 222 243 251 258 253 238 245 233 264 270 269 193 187 188 194 179 197 227 244 249 252 263 216 251 256 279 284 277 294 298 306 303 303 304 304 307 306 305 303
256 244 243 244 247 245 246 239 226 217 214 211 226 225 216 234 241 252 259 223 223 211 231 224 232 266 184 177 176 183 188 225 231 238 238 245 230 228 245 275 295 303 302 310 312 308 308 308 310 311 313 311 308 306
257 251 236 236 243 242 242 239 222 208 205 201 198 180 218 208 194 151 159 172 206 211 223 232 197 247 192 176 169 164 179 236 249 223 212 234 257 259 289 299 332 322 316 315 314 315 318 314 315 312 312 312 308 307
256 255 248 230 235 238 229 238 213 200 193 188 177 200 174 153 160 177 195 190 192 245 230 228 202 204 203 192 186 212 184 204 253 173 241 248 255 183 190 325 326 322 320 318 315 313 313 310 311 311 312 312 312 313
256 253 250 243 230 232 229 232 205 190 191 190 173 153 146 154 218 225 193 184 211 234 204 197 187 195 184 181 181 181 214 203 252 153 236 250 213 184 318 324 325 326 327 326 325 321 320 317 317 319 317 318 322 320
252 251 247 241 229 227 222 229 203 194 188 173 162 206 151 159 201 219 187 193 204 201 178 161 144 163 163 182 180 184 215 230 268 228 238 239 167 253 324 324 327 331 334 333 328 331 329 330 328 327 330 334 334 334
251 248 243 240 232 227 212 214 200 190 170 159 166 199 211 197 217 202 208 172 187 169 161 158 141 160 165 171 181 208 211 243 257 238 230 175 186 321 322 324 329 331 337 343 339 337 333 342 337 343 344 346 351 351
246 247 242 235 234 224 214 210 201 186 168 169 172 199 218 226 179 196 185 159 159 164 153 141 122 153 151 187 195 195 202 230 228 234 181 167 312 317 322 330 329 332 340 341 338 340 343 345 343 345 352 357 4 8
239 240 241 232 230 222 217 198 192 183 187 177 199 216 205 187 195 179 185 181 175 158 159 143 146 172 196 201 190 202 203 224 225 207 179 280 311 319 324 329 328 332 339 343 342 345 348 347 353 354 358 6 14 17
238 232 235 230 227 221 210 172 173 182 184 188 220 212 195 202 204 196 178 181 180 160 175 162 188 200 136 201 208 206 217 229 199 180 221 291 302 302 317 326 327 333 341 342 342 338 349 355 357 2 7 8 15 20
230 226 230 227 216 218 187 183 178 185 178 204 191 195 194 191 162 179 188 185 170 186 181 210 147 200 202 193 207 217 219 210 199 211 266 288 299 283 306 323 325 335 345 341 336 338 349 354 360 3 5 6 11 18
226 219 224 220 214 210 192 182 178 164 189 192 184 172 180 199 205 209 189 193 188 187 188 179 229 213 219 222 229 217 209 206 205 242 274 286 286 273 298 316 321 330 338 336 331 338 341 348 357 5 10 5 8 8
221 219 222 218 209 207 171 140 172 135 163 171 168 173 176 190 201 200 191 190 190 180 210 219 222 225 211 232 238 237 226 220 228 263 272 269 261 277 298 309 313 323 332 333 328 335 340 346 353 1 8 8 8 8
210 215 218 214 205 200 171 149 146 152 133 152 163 163 162 166 164 180 188 191 190 215 223 227 235 239 241 242 252 247 237 237 251 265 268 274 276 289 299 302 299 316 322 322 321 332 344 342 344 353 2 7 6 9
199 202 191 190 138 143 156 157 132 139 134 137 142 155 156 176 180 184 173 190 226 229 230 232 235 232 234 237 242 252 251 246 254 259 259 273 281 291 288 288 288 304 308 301 306 325 340 342 341 352 5 5 5 4
179 184 156 121 128 127 139 135 93 105 127 156 148 137 156 165 178 166 198 220 240 234 233 232 234 237 241 243 247 248 242 242 247 244 243 260 272 274 273 270 270 290 290 291 302 320 335 339 348 352 356 1 2 3
173 142 135 131 125 129 157 120 114 108 107 154 169 162 161 160 159 185 237 235 241 242 234 235 231 231 237 238 241 239 232 234 235 230 242 251 250 259 249 251 257 267 261 288 293 308 321 329 342 347 355 353 357 356
121 137 130 125 137 125 118 122 121 135 142 157 156 154 155 163 173 206 238 235 231 243 241 237 233 227 224 229 229 225 225 225 215 218 234 232 242 237 234 230 240 260 268 269 284 306 315 322 327 330 335 337 338 340
107 147 142 127 140 132 146 139 161 133 116 128 166 137 146 161 189 234 223 231 235 236 236 234 228 219 216 226 226 214 213 211 210 214 221 227 229 221 218 221 233 252 269 271 282 294 304 312 316 319 320 321 323 324
125 141 132 131 131 130 109 83 127 120 142 153 156 159 148 187 223 235 234 241 246 248 241 234 229 223 219 209 208 207 207 206 208 212 217 234 229 219 218 220 229 245 262 273 283 293 300 305 309 312 313 317 319 319
111 153 148 145 120 107 117 120 139 169 162 157 147 179 188 200 219 204 210 225 212 226 209 185 186 197 201 200 200 197 195 199 202 207 213 221 224 220 226 239 260 272 283 290 294 296 296 299 305 310 313 316 320 320
104 130 123 99 103 91 125 158 181 167 157 170 170 167 192 205 200 187 187 188 189 173 163 162 168 180 188 189 193 200 205 202 197 199 209 219 226 235 249 255 265 272 279 285 288 293 298 301 305 309 313 318 321 323
128 111 103 84 83 98 72 131 147 154 149 154 140 127 143 183 190 186 186 184 175 172 175 181 189 196 198 196 200 205 207 204 205 208 217 223 233 244 247 253 262 269 277 283 285 288 295 301 306 309 311 315 318 320
105 91 75 64 77 49 107 119 129 133 130 125 124 128 135 150 176 192 195 193 191 195 202 206 207 208 211 209 207 210 212 205 205 212 220 226 228 232 240 249 257 268 278 284 285 291 297 302 308 313 316 318 320 320
69 78 113 103 99 136 122 114 95 78 87 94 94 133 149 160 198 214 221 215 215 220 225 228 230 233 228 223 218 218 217 211 204 204 215 223 227 233 239 251 262 275 285 285 286 289 292 297 302 306 309 312 315 317
90 94 106 99 114 144 138 113 94 100 95 113 127 163 171 178 215 233 240 225 223 232 237 237 232 222 218 221 219 219 224 224 222 216 218 228 240 250 255 262 271 279 283 286 290 290 290 293 296 297 300 303 306 311